Time,TemperatureF,DewpointF,PressureIn,WindDirection,WindDirectionDegrees,WindSpeedMPH,WindSpeedGustMPH,Humidity,HourlyPrecipIn,Conditions,Clouds,dailyrainin,SoftwareType,DateUTC
2013-07-24 00:03:00,75.7,75.1,29.56,SW,225,0.0,-999.0,98,-99.99,,,0.00,Acu-Link.com,2013-07-24 04:03:00,
2013-07-24 00:18:00,75.2,74.6,29.55,SSW,202,0.0,-999.0,98,-99.99,,,0.00,Acu-Link.com,2013-07-24 04:18:00,
2013-07-24 00:33:00,74.8,74.2,29.56,SW,225,0.0,-999.0,98,-99.99,,,0.00,Acu-Link.com,2013-07-24 04:33:00,
2013-07-24 00:48:00,74.7,74.1,29.56,SW,225,0.0,-999.0,98,-99.99,,,0.00,Acu-Link.com,2013-07-24 04:48:00,
2013-07-24 01:04:00,74.5,73.9,29.56,SW,225,0.0,-999.0,98,-99.99,,,0.00,Acu-Link.com,2013-07-24 05:04:00,
2013-07-24 01:19:00,74.1,73.5,29.56,SSW,202,0.0,-999.0,98,-99.99,,,0.00,Acu-Link.com,2013-07-24 05:19:00,
2013-07-24 01:34:00,73.8,73.2,29.56,SSE,157,0.0,-999.0,98,-99.99,,,0.00,Acu-Link.com,2013-07-24 05:34:00,
2013-07-24 01:49:00,73.6,73.0,29.56,SSW,202,0.0,-999.0,98,-99.99,,,0.00,Acu-Link.com,2013-07-24 05:49:00,
2013-07-24 02:04:00,73.2,72.6,29.56,SSW,202,0.0,-999.0,98,-99.99,,,0.00,Acu-Link.com,2013-07-24 06:04:00,
2013-07-24 02:20:00,73.2,72.6,29.55,SW,225,0.0,-999.0,98,-99.99,,,0.00,Acu-Link.com,2013-07-24 06:20:00,
2013-07-24 02:35:00,73.0,72.4,29.56,NW,315,0.0,-999.0,98,-99.99,,,0.00,Acu-Link.com,2013-07-24 06:35:00,
2013-07-24 02:50:00,72.9,72.3,29.55,NW,315,0.0,-999.0,98,-99.99,,,0.00,Acu-Link.com,2013-07-24 06:50:00,
2013-07-24 03:05:00,72.3,71.7,29.55,NW,315,0.0,-999.0,98,-99.99,,,0.00,Acu-Link.com,2013-07-24 07:05:00,
2013-07-24 03:20:00,72.1,71.5,29.55,NW,315,0.0,-999.0,98,-99.99,,,0.00,Acu-Link.com,2013-07-24 07:20:00,
2013-07-24 03:36:00,72.0,71.4,29.55,NNW,337,0.0,-999.0,98,-99.99,,,0.00,Acu-Link.com,2013-07-24 07:36:00,
2013-07-24 03:51:00,72.0,71.4,29.55,SSW,202,0.0,-999.0,98,-99.99,,,0.00,Acu-Link.com,2013-07-24 07:51:00,
2013-07-24 04:07:00,72.0,71.4,29.55,SSW,202,0.0,-999.0,98,-99.99,,,0.00,Acu-Link.com,2013-07-24 08:07:00,
2013-07-24 04:22:00,71.8,71.2,29.55,SSW,202,0.0,-999.0,98,-99.99,,,0.00,Acu-Link.com,2013-07-24 08:22:00,
2013-07-24 04:37:00,72.1,71.5,29.54,SW,225,0.0,-999.0,98,-99.99,,,0.00,Acu-Link.com,2013-07-24 08:37:00,
2013-07-24 04:52:00,71.6,71.0,29.55,SW,225,0.0,-999.0,98,-99.99,,,0.00,Acu-Link.com,2013-07-24 08:52:00,
2013-07-24 05:07:00,71.6,71.0,29.55,WSW,247,0.0,-999.0,98,-99.99,,,0.00,Acu-Link.com,2013-07-24 09:07:00,
2013-07-24 05:22:00,71.1,70.5,29.56,South,180,0.0,-999.0,98,-99.99,,,0.00,Acu-Link.com,2013-07-24 09:22:00,
2013-07-24 05:38:00,70.9,70.3,29.55,West,270,0.0,-999.0,98,-99.99,,,0.00,Acu-Link.com,2013-07-24 09:38:00,
2013-07-24 05:53:00,70.9,70.3,29.56,WNW,292,0.0,-999.0,98,-99.99,,,0.00,Acu-Link.com,2013-07-24 09:53:00,
2013-07-24 06:08:00,70.7,70.1,29.57,SW,225,0.0,-999.0,98,-99.99,,,0.00,Acu-Link.com,2013-07-24 10:08:00,
2013-07-24 06:23:00,70.7,70.1,29.57,West,270,0.0,-999.0,98,-99.99,,,0.00,Acu-Link.com,2013-07-24 10:23:00,
2013-07-24 06:38:00,71.1,70.5,29.57,SW,225,0.0,-999.0,98,-99.99,,,0.00,Acu-Link.com,2013-07-24 10:38:00,
2013-07-24 06:54:00,71.4,70.8,29.58,SW,225,0.0,-999.0,98,-99.99,,,0.00,Acu-Link.com,2013-07-24 10:54:00,
2013-07-24 07:09:00,71.6,71.0,29.58,SSW,202,0.0,-999.0,98,-99.99,,,0.00,Acu-Link.com,2013-07-24 11:09:00,
2013-07-24 07:24:00,72.1,71.5,29.59,South,180,0.0,-999.0,98,-99.99,,,0.00,Acu-Link.com,2013-07-24 11:24:00,
2013-07-24 07:39:00,72.7,72.1,29.60,SSW,202,0.0,-999.0,98,-99.99,,,0.00,Acu-Link.com,2013-07-24 11:39:00,
2013-07-24 07:55:00,72.9,72.3,29.61,SSW,202,0.0,-999.0,98,-99.99,,,0.00,Acu-Link.com,2013-07-24 11:55:00,
2013-07-24 08:10:00,73.0,72.4,29.61,South,180,0.0,-999.0,98,-99.99,,,0.00,Acu-Link.com,2013-07-24 12:10:00,
2013-07-24 08:25:00,74.3,73.7,29.62,SW,225,0.0,-999.0,98,-99.99,,,0.00,Acu-Link.com,2013-07-24 12:25:00,
2013-07-24 08:40:00,75.2,74.6,29.63,NW,315,0.0,-999.0,98,-99.99,,,0.00,Acu-Link.com,2013-07-24 12:40:00,
2013-07-24 08:55:00,75.9,75.3,29.63,West,270,0.0,-999.0,98,-99.99,,,0.00,Acu-Link.com,2013-07-24 12:55:00,
2013-07-24 09:10:00,76.8,76.2,29.64,SW,225,0.0,-999.0,98,-99.99,,,0.00,Acu-Link.com,2013-07-24 13:10:00,
2013-07-24 09:26:00,77.5,76.9,29.64,SSW,202,2.7,-999.0,98,-99.99,,,0.00,Acu-Link.com,2013-07-24 13:26:00,
2013-07-24 09:41:00,79.0,78.4,29.64,SW,225,0.0,-999.0,98,-99.99,,,0.00,Acu-Link.com,2013-07-24 13:41:00,
2013-07-24 09:56:00,78.4,77.8,29.64,South,180,0.0,-999.0,98,-99.99,,,0.00,Acu-Link.com,2013-07-24 13:56:00,
2013-07-24 10:11:00,79.0,78.4,29.65,ENE,67,0.0,-999.0,98,-99.99,,,0.00,Acu-Link.com,2013-07-24 14:11:00,
2013-07-24 10:26:00,78.8,78.2,29.64,SW,225,0.0,-999.0,98,-99.99,,,0.00,Acu-Link.com,2013-07-24 14:26:00,
2013-07-24 10:42:00,78.6,78.0,29.66,West,270,1.6,-999.0,98,-99.99,,,0.00,Acu-Link.com,2013-07-24 14:42:00,
2013-07-24 10:57:00,78.6,78.0,29.67,West,270,1.6,-999.0,98,-99.99,,,0.00,Acu-Link.com,2013-07-24 14:57:00,
2013-07-24 11:12:00,78.4,77.8,29.67,West,270,2.2,-999.0,98,-99.99,,,0.00,Acu-Link.com,2013-07-24 15:12:00,
2013-07-24 11:27:00,78.1,77.5,29.68,ESE,112,0.0,-999.0,98,-99.99,,,0.00,Acu-Link.com,2013-07-24 15:27:00,
2013-07-24 11:43:00,79.2,78.5,29.68,ENE,67,3.8,-999.0,98,-99.99,,,0.00,Acu-Link.com,2013-07-24 15:43:00,
2013-07-24 11:58:00,78.1,77.5,29.68,WNW,292,1.6,-999.0,98,-99.99,,,0.00,Acu-Link.com,2013-07-24 15:58:00,
2013-07-24 12:13:00,78.6,78.0,29.69,SW,225,2.7,-999.0,98,-99.99,,,0.00,Acu-Link.com,2013-07-24 16:13:00,
2013-07-24 12:28:00,78.1,77.5,29.68,NNW,337,0.0,-999.0,98,-99.99,,,0.00,Acu-Link.com,2013-07-24 16:28:00,
2013-07-24 12:43:00,78.6,78.0,29.70,West,270,0.0,-999.0,98,-99.99,,,0.00,Acu-Link.com,2013-07-24 16:43:00,
2013-07-24 12:59:00,78.6,78.0,29.69,WNW,292,1.6,-999.0,98,-99.99,,,0.00,Acu-Link.com,2013-07-24 16:59:00,
2013-07-24 13:14:00,78.8,78.2,29.70,NNW,337,3.1,-999.0,98,-99.99,,,0.00,Acu-Link.com,2013-07-24 17:14:00,
2013-07-24 13:29:00,79.0,78.4,29.69,West,270,3.8,-999.0,98,-99.99,,,0.00,Acu-Link.com,2013-07-24 17:29:00,
2013-07-24 13:44:00,79.5,78.9,29.69,WNW,292,1.6,-999.0,98,-99.99,,,0.00,Acu-Link.com,2013-07-24 17:44:00,
2013-07-24 13:59:00,79.0,78.4,29.69,WSW,247,3.1,-999.0,98,-99.99,,,0.00,Acu-Link.com,2013-07-24 17:59:00,
2013-07-24 14:15:00,79.5,78.9,29.69,SE,135,4.3,-999.0,98,-99.99,,,0.00,Acu-Link.com,2013-07-24 18:15:00,
2013-07-24 14:30:00,77.9,77.3,29.70,WNW,292,0.0,-999.0,98,-99.99,,,0.00,Acu-Link.com,2013-07-24 18:30:00,
2013-07-24 14:45:00,78.6,78.0,29.70,West,270,2.2,-999.0,98,-99.99,,,0.00,Acu-Link.com,2013-07-24 18:45:00,
2013-07-24 15:00:00,78.6,78.0,29.71,West,270,2.2,-999.0,98,-99.99,,,0.00,Acu-Link.com,2013-07-24 19:00:00,
2013-07-24 15:16:00,78.8,78.2,29.71,NW,315,0.0,-999.0,98,-99.99,,,0.00,Acu-Link.com,2013-07-24 19:16:00,
2013-07-24 15:31:00,80.1,79.4,29.71,West,270,0.0,-999.0,98,-99.99,,,0.00,Acu-Link.com,2013-07-24 19:31:00,
2013-07-24 15:46:00,80.2,79.6,29.71,ESE,112,0.0,-999.0,98,-99.99,,,0.00,Acu-Link.com,2013-07-24 19:46:00,
2013-07-24 16:01:00,80.4,79.8,29.71,WNW,292,4.7,-999.0,98,-99.99,,,0.00,Acu-Link.com,2013-07-24 20:01:00,
2013-07-24 16:16:00,80.6,80.0,29.71,West,270,3.1,-999.0,98,-99.99,,,0.00,Acu-Link.com,2013-07-24 20:16:00,
2013-07-24 16:31:00,80.6,80.0,29.70,WNW,292,0.0,-999.0,98,-99.99,,,0.00,Acu-Link.com,2013-07-24 20:31:00,
2013-07-24 16:47:00,79.2,78.5,29.71,SW,225,1.6,-999.0,98,-99.99,,,0.00,Acu-Link.com,2013-07-24 20:47:00,
2013-07-24 17:02:00,79.0,78.4,29.71,WNW,292,4.7,-999.0,98,-99.99,,,0.00,Acu-Link.com,2013-07-24 21:02:00,
2013-07-24 17:17:00,79.0,78.4,29.72,WSW,247,4.3,-999.0,98,-99.99,,,0.00,Acu-Link.com,2013-07-24 21:17:00,
2013-07-24 17:32:00,79.7,79.1,29.72,SW,225,1.6,-999.0,98,-99.99,,,0.00,Acu-Link.com,2013-07-24 21:32:00,
2013-07-24 17:47:00,79.5,78.9,29.72,SSW,202,0.0,-999.0,98,-99.99,,,0.00,Acu-Link.com,2013-07-24 21:47:00,
2013-07-24 18:03:00,79.5,78.9,29.72,West,270,0.0,-999.0,98,-99.99,,,0.00,Acu-Link.com,2013-07-24 22:03:00,
2013-07-24 18:18:00,78.8,78.2,29.73,SW,225,0.0,-999.0,98,-99.99,,,0.00,Acu-Link.com,2013-07-24 22:18:00,
2013-07-24 18:33:00,77.7,77.1,29.73,West,270,3.8,-999.0,98,-99.99,,,0.00,Acu-Link.com,2013-07-24 22:33:00,
2013-07-24 18:48:00,77.5,76.9,29.74,WNW,292,0.0,-999.0,98,-99.99,,,0.00,Acu-Link.com,2013-07-24 22:48:00,
2013-07-24 19:03:00,77.5,76.9,29.74,West,270,0.0,-999.0,98,-99.99,,,0.00,Acu-Link.com,2013-07-24 23:03:00,
2013-07-24 19:18:00,77.2,76.6,29.75,West,270,0.0,-999.0,98,-99.99,,,0.00,Acu-Link.com,2013-07-24 23:18:00,
2013-07-24 19:34:00,76.5,75.9,29.76,West,270,0.0,-999.0,98,-99.99,,,0.00,Acu-Link.com,2013-07-24 23:34:00,
2013-07-24 19:49:00,75.9,75.3,29.76,NW,315,0.0,-999.0,98,-99.99,,,0.00,Acu-Link.com,2013-07-24 23:49:00,
2013-07-24 20:04:00,75.2,74.6,29.77,WSW,247,1.6,-999.0,98,-99.99,,,0.00,Acu-Link.com,2013-07-25 00:04:00,
2013-07-24 20:19:00,74.7,74.1,29.78,West,270,0.0,-999.0,98,-99.99,,,0.00,Acu-Link.com,2013-07-25 00:19:00,
2013-07-24 20:34:00,74.3,73.7,29.79,SSW,202,2.2,-999.0,98,-99.99,,,0.00,Acu-Link.com,2013-07-25 00:34:00,
2013-07-24 20:49:00,73.9,73.3,29.80,WNW,292,0.0,-999.0,98,-99.99,,,0.00,Acu-Link.com,2013-07-25 00:49:00,
2013-07-24 21:04:00,73.4,72.8,29.81,West,270,0.0,-999.0,98,-99.99,,,0.00,Acu-Link.com,2013-07-25 01:04:00,
2013-07-24 21:19:00,73.2,72.6,29.82,SW,225,0.0,-999.0,98,-99.99,,,0.00,Acu-Link.com,2013-07-25 01:19:00,
2013-07-24 21:34:00,73.2,72.6,29.83,SE,135,0.0,-999.0,98,-99.99,,,0.00,Acu-Link.com,2013-07-25 01:34:00,
2013-07-24 21:50:00,72.5,71.9,29.83,East,90,0.0,-999.0,98,-99.99,,,0.00,Acu-Link.com,2013-07-25 01:50:00,
2013-07-24 22:05:00,71.6,71.0,29.85,East,90,2.2,-999.0,98,-99.99,,,0.00,Acu-Link.com,2013-07-25 02:05:00,
2013-07-24 22:20:00,71.1,70.5,29.85,SW,225,0.0,-999.0,98,-99.99,,,0.00,Acu-Link.com,2013-07-25 02:20:00,
2013-07-24 22:35:00,70.3,69.7,29.86,ESE,112,0.0,-999.0,98,-99.99,,,0.00,Acu-Link.com,2013-07-25 02:35:00,
2013-07-24 22:50:00,70.0,69.4,29.87,SE,135,0.0,-999.0,98,-99.99,,,0.00,Acu-Link.com,2013-07-25 02:50:00,
2013-07-24 23:05:00,69.4,68.8,29.87,South,180,0.0,-999.0,98,-99.99,,,0.00,Acu-Link.com,2013-07-25 03:05:00,
2013-07-24 23:20:00,69.1,68.5,29.87,West,270,1.1,-999.0,98,-99.99,,,0.00,Acu-Link.com,2013-07-25 03:20:00,
2013-07-24 23:35:00,68.7,68.1,29.88,SW,225,0.0,-999.0,98,-99.99,,,0.00,Acu-Link.com,2013-07-25 03:35:00,
2013-07-24 23:50:00,68.2,67.6,29.88,SSW,202,2.2,-999.0,98,-99.99,,,0.00,Acu-Link.com,2013-07-25 03:50:00,